Orbital Elements at Epoch 2459000.5 (2020-May-31.0) TDB
Reference: JPL 31 (heliocentric ecliptic J2000)
Element | Value | Uncertainty (1-sigma) | Units |
e | .1047009387041028 | 4.1787e-08 | |
a | 2.529713111004373 | 1.176e-08 | au |
q | 2.264849773630139 | 1.0672e-07 | au |
i | 7.065790231544693 | 4.2869e-06 | deg |
node | 191.5723082132739 | 3.115e-05 | deg |
peri | 48.56894896536232 | 3.5119e-05 | deg |
M | 275.3819304121491 | 1.7202e-05 | deg |
tp | 2459345.934688318071 (2021-May-11.43468832) | 7.0539e-05 | TDB |
period | 1469.620949759412 4.02 | 1.0248e-05 2.806e-08 | d yr |
n | .2449611241993622 | 1.7081e-09 | deg/d |
Q | 2.794576448378608 | 1.2991e-08 | au |
|
| | Orbit Determination Parameters
Additional Information
|